SWARM A (39452 NORAD) Tracking and Keplerian Element Data

This shows tracking and keplerian element data for the satellite.

Feedback or suggestion? Click here.




ElementValue
Catalog39452
NameSWARM A
Epoch Orbit44120
Epoch Day269.86603983
Epoch Year2021
RAAN320.7951
Inclination87.3597
Eccentricity0.000307
Argument of Perigee78.5202
Mean Anonmoly281.6401
Mean Motion15.46050286
Decay Rate3.131E-05
L11 39452U 13067B 21269.86603983 .00003131 00000-0 63218-4 0 9995
L22 39452 87.3597 320.7951 0003070 78.5202 281.6401 15.46050286441205

Live tracking and technical data element details for SWARM A (NORAD 39452). SWARM A can be tracked NOW for your location showing map with azimuth and elevation plus other details from your city location.

Track the satellite on the map from your city or location and see movement details for azimuth, elevation, latitude, longitude, range, height, and movement on the map or in text.







IsCatalogInMostPopularTable: catalog: 39452, numindb: 568
Update: records affected: 1



GetName: 39452 SWARM A

Hit Count: updated at: Tue, 28 Sep 2021 17:14:51 GMT